Tracking 19476 objects as of 18-Jan-2019
HD Live streaming from Space Station
objects crossing your sky now

METEOR 2-11

Track METEOR 2-11 now!
10-day predictions
METEOR 2-11 is classified as:


NORAD ID: 15099
Int'l Code: 1984-072A
Perigee: 942.9 km
Apogee: 963.5 km
Inclination: 82.5 °
Period: 104.0 minutes
Semi major axis: 7324 km
RCS: 4.8453 m2 (large)
Launch date: July 5, 1984
Source: Commonwealth of Independent States (former USSR) (CIS)
Launch site: PLESETSK MISSILE AND SPACE COMPLEX (PKMTR)
aabbcc
Your satellite tracking list
Your tracking list is empty




NASA's NSSDC Master Catalog

Two Line Element Set (TLE):
1 15099U 84072A   19017.65123843  .00000053  00000-0  33328-4 0  9996
2 15099  82.5292  37.9719 0014053 134.6282 225.6027 13.85046150745518
Source of the keplerian elements: AFSPC